Time,TemperatureF,DewpointF,PressureIn,WindDirection,WindDirectionDegrees,WindSpeedMPH,WindSpeedGustMPH,Humidity,HourlyPrecipIn,Conditions,Clouds,dailyrainin,SoftwareType,DateUTC
2013-09-12 00:01:00,69.1,64.9,30.00,WSW,246,0.0,0.0,86,0.00,,---,0.00,VWS V14.01,2013-09-12 05:01:00,
2013-09-12 00:06:00,68.9,64.7,30.00,WSW,245,0.0,0.0,86,0.00,,---,0.00,VWS V14.01,2013-09-12 05:06:00,
2013-09-12 00:11:00,68.6,64.4,30.00,WSW,246,0.0,0.0,86,0.00,,---,0.00,VWS V14.01,2013-09-12 05:11:00,
2013-09-12 00:16:00,68.5,64.6,30.00,WSW,246,0.0,0.0,87,0.00,,---,0.00,VWS V14.01,2013-09-12 05:16:00,
2013-09-12 00:21:00,68.6,64.7,30.00,WSW,246,0.0,0.0,87,0.00,,---,0.00,VWS V14.01,2013-09-12 05:21:00,
2013-09-12 00:26:00,68.6,64.7,30.00,WSW,246,0.0,0.0,87,0.00,,---,0.00,VWS V14.01,2013-09-12 05:26:00,
2013-09-12 00:31:00,68.5,64.6,30.00,WSW,246,0.0,0.0,87,0.00,,---,0.00,VWS V14.01,2013-09-12 05:31:00,
2013-09-12 00:36:00,68.4,64.5,30.01,WSW,246,0.0,0.0,87,0.00,,---,0.00,VWS V14.01,2013-09-12 05:36:00,
2013-09-12 00:41:00,68.4,64.5,30.00,WSW,246,0.0,0.0,87,0.00,,---,0.00,VWS V14.01,2013-09-12 05:41:00,
2013-09-12 00:46:00,68.4,64.5,30.00,WSW,245,0.0,0.0,87,0.00,,---,0.00,VWS V14.01,2013-09-12 05:46:00,
2013-09-12 00:51:00,68.3,64.4,30.00,WSW,245,0.0,0.0,87,0.00,,---,0.00,VWS V14.01,2013-09-12 05:51:00,
2013-09-12 00:56:00,68.4,64.5,30.01,WSW,245,0.0,0.0,87,0.00,,---,0.00,VWS V14.01,2013-09-12 05:56:00,
2013-09-12 01:01:00,68.4,64.5,30.01,WSW,246,0.0,0.0,87,0.00,,---,0.00,VWS V14.01,2013-09-12 06:01:00,
2013-09-12 01:06:00,68.4,64.5,30.01,WSW,247,0.0,0.0,87,0.00,,---,0.00,VWS V14.01,2013-09-12 06:06:00,
2013-09-12 01:11:00,68.4,64.5,30.01,WSW,246,0.0,0.0,87,0.00,,---,0.00,VWS V14.01,2013-09-12 06:11:00,
2013-09-12 01:16:00,68.4,64.5,30.01,WSW,246,0.0,0.0,87,0.00,,---,0.00,VWS V14.01,2013-09-12 06:16:00,
2013-09-12 01:21:00,68.3,64.4,30.01,WSW,246,0.0,0.0,87,0.00,,---,0.00,VWS V14.01,2013-09-12 06:21:00,
2013-09-12 01:26:00,68.2,64.3,30.01,WSW,246,0.0,0.0,87,0.00,,---,0.00,VWS V14.01,2013-09-12 06:26:00,
2013-09-12 01:31:00,68.0,64.1,30.01,WSW,245,0.0,0.0,87,0.00,,---,0.00,VWS V14.01,2013-09-12 06:31:00,
2013-09-12 01:36:00,67.9,64.0,30.01,WSW,246,0.0,0.0,87,0.00,,---,0.00,VWS V14.01,2013-09-12 06:36:00,
2013-09-12 01:41:00,67.9,64.0,30.01,WSW,245,0.0,0.0,87,0.00,,---,0.00,VWS V14.01,2013-09-12 06:41:00,
2013-09-12 01:46:00,67.8,63.9,30.01,WSW,245,0.0,0.0,87,0.00,,---,0.00,VWS V14.01,2013-09-12 06:46:00,
2013-09-12 01:51:00,67.8,63.6,30.01,WSW,246,0.0,0.0,86,0.00,,---,0.00,VWS V14.01,2013-09-12 06:51:00,
2013-09-12 01:56:00,67.8,63.6,30.01,WSW,246,0.0,0.0,86,0.00,,---,0.00,VWS V14.01,2013-09-12 06:56:00,
2013-09-12 02:01:00,67.8,63.3,30.01,WSW,246,0.0,0.0,86,0.00,,---,0.00,VWS V14.01,2013-09-12 07:01:00,
2013-09-12 02:06:00,67.8,63.3,30.01,WSW,246,0.0,0.0,86,0.00,,---,0.00,VWS V14.01,2013-09-12 07:06:00,
2013-09-12 02:11:00,67.8,63.3,30.01,WSW,246,0.0,0.0,86,0.00,,---,0.00,VWS V14.01,2013-09-12 07:11:00,
2013-09-12 02:16:00,67.6,63.1,30.01,WSW,246,0.0,0.0,86,0.00,,---,0.00,VWS V14.01,2013-09-12 07:16:00,
2013-09-12 02:21:00,67.5,63.0,30.01,WSW,246,0.0,0.0,86,0.00,,---,0.00,VWS V14.01,2013-09-12 07:21:00,
2013-09-12 02:26:00,67.3,62.8,30.01,WSW,246,0.0,0.0,86,0.00,,---,0.00,VWS V14.01,2013-09-12 07:26:00,
2013-09-12 02:31:00,67.1,62.6,30.01,WSW,246,0.0,0.0,86,0.00,,---,0.00,VWS V14.01,2013-09-12 07:31:00,
2013-09-12 02:36:00,66.8,62.3,30.01,WSW,246,0.0,0.0,86,0.00,,---,0.00,VWS V14.01,2013-09-12 07:36:00,
2013-09-12 02:41:00,66.7,62.2,30.01,WSW,246,0.0,0.0,86,0.00,,---,0.00,VWS V14.01,2013-09-12 07:41:00,
2013-09-12 02:45:00,66.6,62.1,30.01,WSW,246,0.0,0.0,86,0.00,,---,0.00,VWS V14.01,2013-09-12 07:45:00,
2013-09-12 02:50:00,66.5,62.0,30.02,WSW,246,0.0,0.0,86,0.00,,---,0.00,VWS V14.01,2013-09-12 07:50:00,
2013-09-12 02:55:00,66.5,62.0,30.01,WSW,246,0.0,0.0,86,0.00,,---,0.00,VWS V14.01,2013-09-12 07:55:00,
2013-09-12 03:00:00,66.5,62.0,30.02,WSW,246,0.0,0.0,86,0.00,,---,0.00,VWS V14.01,2013-09-12 08:00:00,
2013-09-12 03:05:00,66.4,62.0,30.01,WSW,246,0.0,0.0,86,0.00,,---,0.00,VWS V14.01,2013-09-12 08:05:00,
2013-09-12 03:10:00,66.3,62.2,30.02,WSW,246,0.0,0.0,86,0.00,,---,0.00,VWS V14.01,2013-09-12 08:10:00,
2013-09-12 03:15:00,66.2,62.1,30.01,WSW,246,0.0,0.0,86,0.00,,---,0.00,VWS V14.01,2013-09-12 08:15:00,
2013-09-12 03:20:00,66.1,62.0,30.01,WSW,245,0.0,0.0,86,0.00,,---,0.00,VWS V14.01,2013-09-12 08:20:00,
2013-09-12 03:25:00,66.0,61.9,30.01,WSW,246,0.0,0.0,86,0.00,,---,0.00,VWS V14.01,2013-09-12 08:25:00,
2013-09-12 03:30:00,65.8,61.4,30.01,WSW,246,0.0,0.0,86,0.00,,---,0.00,VWS V14.01,2013-09-12 08:30:00,
2013-09-12 03:35:00,65.7,61.3,30.01,WSW,246,0.0,0.0,86,0.00,,---,0.00,VWS V14.01,2013-09-12 08:35:00,
2013-09-12 03:40:00,65.6,61.2,30.01,WSW,246,0.0,0.0,86,0.00,,---,0.00,VWS V14.01,2013-09-12 08:40:00,
2013-09-12 03:45:00,65.5,61.1,30.01,WSW,248,0.0,0.0,86,0.00,,---,0.00,VWS V14.01,2013-09-12 08:45:00,
2013-09-12 03:50:00,65.4,61.0,30.01,WSW,248,0.0,0.0,86,0.00,,---,0.00,VWS V14.01,2013-09-12 08:50:00,
2013-09-12 03:55:00,65.4,61.0,30.01,WSW,248,0.0,0.0,86,0.00,,---,0.00,VWS V14.01,2013-09-12 08:55:00,
2013-09-12 04:00:00,65.3,60.9,30.02,WSW,248,0.0,0.0,86,0.00,,---,0.00,VWS V14.01,2013-09-12 09:00:00,
2013-09-12 04:05:00,65.2,60.8,30.01,WSW,248,0.0,0.0,86,0.00,,---,0.00,VWS V14.01,2013-09-12 09:05:00,
2013-09-12 04:10:00,65.0,60.6,30.01,WSW,248,0.0,0.0,86,0.00,,---,0.00,VWS V14.01,2013-09-12 09:10:00,
2013-09-12 04:15:00,65.0,60.6,30.01,WSW,248,0.0,0.0,86,0.00,,---,0.00,VWS V14.01,2013-09-12 09:15:00,
2013-09-12 04:20:00,64.8,60.4,30.01,WSW,246,0.0,0.0,86,0.00,,---,0.00,VWS V14.01,2013-09-12 09:20:00,
2013-09-12 04:25:00,64.6,60.2,30.02,WSW,246,0.0,0.0,86,0.00,,---,0.00,VWS V14.01,2013-09-12 09:25:00,
2013-09-12 04:30:00,64.3,59.9,30.01,WSW,248,0.0,0.0,86,0.00,,---,0.00,VWS V14.01,2013-09-12 09:30:00,
2013-09-12 04:35:00,64.0,59.6,30.02,WSW,245,0.0,0.0,86,0.00,,---,0.00,VWS V14.01,2013-09-12 09:35:00,
2013-09-12 04:40:00,63.8,59.4,30.02,WSW,245,0.0,0.0,86,0.00,,---,0.00,VWS V14.01,2013-09-12 09:40:00,
2013-09-12 04:45:00,63.6,59.5,30.02,WSW,246,0.0,0.0,86,0.00,,---,0.00,VWS V14.01,2013-09-12 09:45:00,
2013-09-12 04:50:00,63.5,59.4,30.02,WSW,248,0.0,0.0,86,0.00,,---,0.00,VWS V14.01,2013-09-12 09:50:00,
2013-09-12 04:55:00,63.4,59.3,30.02,WSW,247,0.0,0.0,86,0.00,,---,0.00,VWS V14.01,2013-09-12 09:55:00,
2013-09-12 05:00:00,63.3,59.2,30.02,WSW,248,0.0,0.0,86,0.00,,---,0.00,VWS V14.01,2013-09-12 10:00:00,
2013-09-12 05:05:00,63.0,58.9,30.02,WSW,248,0.0,0.0,86,0.00,,---,0.00,VWS V14.01,2013-09-12 10:05:00,
2013-09-12 05:10:00,62.9,58.8,30.02,WSW,248,0.0,0.0,86,0.00,,---,0.00,VWS V14.01,2013-09-12 10:10:00,
2013-09-12 05:15:00,62.8,59.0,30.02,WSW,248,0.0,0.0,87,0.00,,---,0.00,VWS V14.01,2013-09-12 10:15:00,
2013-09-12 05:20:00,62.7,58.9,30.02,WSW,246,0.0,0.0,87,0.00,,---,0.00,VWS V14.01,2013-09-12 10:20:00,
2013-09-12 05:25:00,62.7,58.9,30.02,WSW,245,0.0,0.0,87,0.00,,---,0.00,VWS V14.01,2013-09-12 10:25:00,
2013-09-12 05:30:00,62.7,58.9,30.02,WSW,246,0.0,0.0,87,0.00,,---,0.00,VWS V14.01,2013-09-12 10:30:00,
2013-09-12 05:35:00,62.6,58.8,30.02,WSW,246,0.0,0.0,87,0.00,,---,0.00,VWS V14.01,2013-09-12 10:35:00,
2013-09-12 05:40:00,62.5,58.7,30.02,WSW,246,0.0,0.0,87,0.00,,---,0.00,VWS V14.01,2013-09-12 10:40:00,
2013-09-12 05:45:00,62.4,58.6,30.02,WSW,246,0.0,0.0,87,0.00,,---,0.00,VWS V14.01,2013-09-12 10:45:00,
2013-09-12 05:50:00,62.3,58.5,30.02,WSW,248,0.0,0.0,87,0.00,,---,0.00,VWS V14.01,2013-09-12 10:50:00,
2013-09-12 05:55:00,62.1,58.3,30.02,WSW,248,0.0,0.0,87,0.00,,---,0.00,VWS V14.01,2013-09-12 10:55:00,
2013-09-12 06:00:00,61.9,58.1,30.02,WSW,248,0.0,0.0,87,0.00,,---,0.00,VWS V14.01,2013-09-12 11:00:00,
2013-09-12 06:05:00,61.8,58.0,30.02,WSW,248,0.0,0.0,87,0.00,,---,0.00,VWS V14.01,2013-09-12 11:05:00,
2013-09-12 06:10:00,61.7,58.2,30.02,WSW,248,0.0,0.0,88,0.00,,---,0.00,VWS V14.01,2013-09-12 11:10:00,
2013-09-12 06:15:00,61.7,58.2,30.02,WSW,246,0.0,0.0,88,0.00,,---,0.00,VWS V14.01,2013-09-12 11:15:00,
2013-09-12 06:20:00,61.8,58.3,30.02,WSW,248,0.0,0.0,88,0.00,,---,0.00,VWS V14.01,2013-09-12 11:20:00,
2013-09-12 06:25:00,61.7,58.2,30.02,WSW,248,0.0,0.0,88,0.00,,---,0.00,VWS V14.01,2013-09-12 11:25:00,
2013-09-12 06:30:00,61.5,58.0,30.02,WSW,248,0.0,0.0,88,0.00,,---,0.00,VWS V14.01,2013-09-12 11:30:00,
2013-09-12 06:35:00,61.5,58.0,30.02,WSW,248,0.0,0.0,88,0.00,,---,0.00,VWS V14.01,2013-09-12 11:35:00,
2013-09-12 06:40:00,61.5,58.3,30.02,WSW,248,0.0,0.0,89,0.00,,---,0.00,VWS V14.01,2013-09-12 11:40:00,
2013-09-12 06:45:00,61.6,58.4,30.02,WSW,246,0.0,0.0,89,0.00,,---,0.00,VWS V14.01,2013-09-12 11:45:00,
2013-09-12 06:50:00,61.6,58.1,30.02,WSW,247,0.0,0.0,88,0.00,,---,0.00,VWS V14.01,2013-09-12 11:50:00,
2013-09-12 06:55:00,61.6,58.1,30.02,WSW,247,0.0,0.0,88,0.00,,---,0.00,VWS V14.01,2013-09-12 11:55:00,
2013-09-12 07:00:00,61.5,58.0,30.02,WSW,246,0.0,0.0,88,0.00,,---,0.00,VWS V14.01,2013-09-12 12:00:00,
2013-09-12 07:05:00,61.6,58.1,30.02,WSW,248,0.0,0.0,88,0.00,,---,0.00,VWS V14.01,2013-09-12 12:05:00,
2013-09-12 07:10:00,61.7,58.5,30.03,WNW,298,0.0,0.0,89,0.00,,---,0.00,VWS V14.01,2013-09-12 12:10:00,
2013-09-12 07:15:00,61.9,58.4,30.03,West,281,0.0,0.0,88,0.00,,---,0.00,VWS V14.01,2013-09-12 12:15:00,
2013-09-12 07:20:00,62.1,58.6,30.03,West,281,0.0,0.0,88,0.00,,---,0.00,VWS V14.01,2013-09-12 12:20:00,
2013-09-12 07:25:00,62.3,58.5,30.03,West,281,0.0,0.0,87,0.00,,---,0.00,VWS V14.01,2013-09-12 12:25:00,
2013-09-12 07:30:00,62.5,58.4,30.03,West,281,0.0,0.0,86,0.00,,---,0.00,VWS V14.01,2013-09-12 12:30:00,
2013-09-12 07:35:00,62.7,58.6,30.03,West,281,0.0,0.0,86,0.00,,---,0.00,VWS V14.01,2013-09-12 12:35:00,
2013-09-12 07:40:00,62.9,58.5,30.03,West,281,0.0,0.0,86,0.00,,---,0.00,VWS V14.01,2013-09-12 12:40:00,
2013-09-12 07:45:00,63.1,58.7,30.03,West,281,0.0,0.0,86,0.00,,---,0.00,VWS V14.01,2013-09-12 12:45:00,
2013-09-12 07:50:00,63.3,58.6,30.03,West,281,0.0,0.0,85,0.00,,---,0.00,VWS V14.01,2013-09-12 12:50:00,
2013-09-12 07:55:00,63.5,58.8,30.03,West,281,0.0,0.0,85,0.00,,---,0.00,VWS V14.01,2013-09-12 12:55:00,
2013-09-12 08:00:00,63.8,58.8,30.03,West,281,0.0,0.0,84,0.00,,---,0.00,VWS V14.01,2013-09-12 13:00:00,
2013-09-12 08:05:00,64.1,59.1,30.03,West,281,0.0,0.0,84,0.00,,---,0.00,VWS V14.01,2013-09-12 13:05:00,
2013-09-12 08:10:00,64.3,59.3,30.03,West,281,0.0,0.0,84,0.00,,---,0.00,VWS V14.01,2013-09-12 13:10:00,
2013-09-12 08:15:00,64.6,59.6,30.03,West,281,0.0,0.0,84,0.00,,---,0.00,VWS V14.01,2013-09-12 13:15:00,
2013-09-12 08:20:00,65.0,60.0,30.03,West,281,0.0,0.0,84,0.00,,---,0.00,VWS V14.01,2013-09-12 13:20:00,
2013-09-12 08:25:00,65.3,59.9,30.03,NW,312,1.8,7.2,83,0.00,,---,0.00,VWS V14.01,2013-09-12 13:25:00,
2013-09-12 08:30:00,65.6,59.6,30.03,NW,311,0.0,3.6,81,0.00,,---,0.00,VWS V14.01,2013-09-12 13:30:00,
2013-09-12 08:35:00,66.1,59.8,30.03,NW,311,0.0,1.8,80,0.00,,---,0.00,VWS V14.01,2013-09-12 13:35:00,
2013-09-12 08:40:00,66.3,59.6,30.03,WNW,300,0.0,1.8,79,0.00,,---,0.00,VWS V14.01,2013-09-12 13:40:00,
2013-09-12 08:45:00,66.7,59.7,30.03,West,268,0.0,1.8,78,0.00,,---,0.00,VWS V14.01,2013-09-12 13:45:00,
2013-09-12 08:50:00,67.0,59.3,30.03,West,277,0.0,0.0,76,0.00,,---,0.00,VWS V14.01,2013-09-12 13:50:00,
2013-09-12 08:55:00,67.5,59.8,30.03,SE,133,1.8,5.4,76,0.00,,---,0.00,VWS V14.01,2013-09-12 13:55:00,
2013-09-12 09:00:00,67.9,59.8,30.03,NW,322,0.0,3.6,75,0.00,,---,0.00,VWS V14.01,2013-09-12 14:00:00,
2013-09-12 09:05:00,68.3,59.5,30.03,NW,311,1.8,3.6,73,0.00,,---,0.00,VWS V14.01,2013-09-12 14:05:00,
2013-09-12 09:10:00,68.5,59.0,30.03,NNW,332,5.4,5.4,72,0.00,,---,0.00,VWS V14.01,2013-09-12 14:10:00,
2013-09-12 09:15:00,68.7,58.8,30.03,East,95,0.0,5.4,71,0.00,,---,0.00,VWS V14.01,2013-09-12 14:15:00,
2013-09-12 09:20:00,69.1,58.8,30.03,ESE,117,0.0,7.2,70,0.00,,---,0.00,VWS V14.01,2013-09-12 14:20:00,
2013-09-12 09:25:00,69.3,58.6,30.03,NNW,328,0.0,3.6,69,0.00,,---,0.00,VWS V14.01,2013-09-12 14:25:00,
2013-09-12 09:30:00,69.6,58.9,30.03,NW,317,3.6,7.2,69,0.00,,---,0.00,VWS V14.01,2013-09-12 14:30:00,
2013-09-12 09:35:00,70.1,59.0,30.04,NW,325,1.8,5.4,68,0.00,,---,0.00,VWS V14.01,2013-09-12 14:35:00,
2013-09-12 09:40:00,70.7,58.8,30.04,NNE,18,3.6,7.2,66,0.00,,---,0.00,VWS V14.01,2013-09-12 14:40:00,
2013-09-12 09:45:00,70.9,58.6,30.04,WNW,298,3.6,7.2,65,0.00,,---,0.00,VWS V14.01,2013-09-12 14:45:00,
2013-09-12 09:49:00,71.6,58.0,30.04,NNW,332,0.0,5.4,62,0.00,,---,0.00,VWS V14.01,2013-09-12 14:49:00,
2013-09-12 09:54:00,72.2,58.2,30.04,ESE,103,1.8,3.6,61,0.00,,---,0.00,VWS V14.01,2013-09-12 14:54:00,
2013-09-12 09:59:00,72.6,58.1,30.04,SW,233,1.8,5.4,60,0.00,,---,0.00,VWS V14.01,2013-09-12 14:59:00,
2013-09-12 10:04:00,73.0,58.1,30.04,East,79,3.6,7.2,60,0.00,,---,0.00,VWS V14.01,2013-09-12 15:04:00,
2013-09-12 10:09:00,73.4,58.0,30.04,NNW,347,1.8,5.4,59,0.00,,---,0.00,VWS V14.01,2013-09-12 15:09:00,
2013-09-12 10:14:00,73.9,57.6,30.04,WSW,239,1.8,7.2,57,0.00,,---,0.00,VWS V14.01,2013-09-12 15:14:00,
2013-09-12 10:19:00,74.3,57.5,30.04,NNW,347,1.8,9.0,56,0.00,,---,0.00,VWS V14.01,2013-09-12 15:19:00,
2013-09-12 10:24:00,74.7,56.9,30.04,SSE,162,0.0,7.2,54,0.00,,---,0.00,VWS V14.01,2013-09-12 15:24:00,
2013-09-12 10:29:00,75.2,57.4,30.04,NW,319,5.4,9.0,54,0.00,,---,0.00,VWS V14.01,2013-09-12 15:29:00,
2013-09-12 10:34:00,75.6,56.8,30.04,ENE,71,1.8,9.0,52,0.00,,---,0.00,VWS V14.01,2013-09-12 15:34:00,
2013-09-12 10:39:00,75.8,56.0,30.04,NE,48,3.6,12.6,50,0.00,,---,0.00,VWS V14.01,2013-09-12 15:39:00,
2013-09-12 10:44:00,76.1,56.2,30.04,ESE,115,1.8,9.0,50,0.00,,---,0.00,VWS V14.01,2013-09-12 15:44:00,
2013-09-12 10:49:00,76.3,56.4,30.04,WNW,297,3.6,10.8,50,0.00,,---,0.00,VWS V14.01,2013-09-12 15:49:00,
2013-09-12 10:54:00,76.7,56.3,30.04,NE,39,3.6,9.0,49,0.00,,---,0.00,VWS V14.01,2013-09-12 15:54:00,
2013-09-12 10:59:00,76.9,54.9,30.04,WNW,288,1.8,9.0,46,0.00,,---,0.00,VWS V14.01,2013-09-12 15:59:00,
2013-09-12 11:04:00,77.3,56.3,30.04,SW,236,1.8,7.2,48,0.00,,---,0.00,VWS V14.01,2013-09-12 16:04:00,
2013-09-12 11:09:00,77.9,55.8,30.04,NNE,22,5.4,7.2,46,0.00,,---,0.00,VWS V14.01,2013-09-12 16:09:00,
2013-09-12 11:14:00,78.5,56.3,30.04,NNE,23,1.8,7.2,46,0.00,,---,0.00,VWS V14.01,2013-09-12 16:14:00,
2013-09-12 11:19:00,78.7,55.4,30.04,East,96,3.6,9.0,45,0.00,,---,0.00,VWS V14.01,2013-09-12 16:19:00,
2013-09-12 11:24:00,78.4,53.9,30.04,East,82,3.6,12.6,43,0.00,,---,0.00,VWS V14.01,2013-09-12 16:24:00,
2013-09-12 11:29:00,78.4,54.5,30.04,NE,50,3.6,16.2,44,0.00,,---,0.00,VWS V14.01,2013-09-12 16:29:00,
2013-09-12 11:34:00,78.3,53.2,30.04,SSE,155,1.8,7.2,42,0.00,,---,0.00,VWS V14.01,2013-09-12 16:34:00,
2013-09-12 11:39:00,78.6,53.5,30.04,NW,314,7.2,9.0,42,0.00,,---,0.00,VWS V14.01,2013-09-12 16:39:00,
2013-09-12 11:44:00,78.8,53.7,30.04,NW,304,5.4,12.6,42,0.00,,---,0.00,VWS V14.01,2013-09-12 16:44:00,
2013-09-12 11:49:00,79.2,54.7,30.04,NNW,327,3.6,9.0,43,0.00,,---,0.00,VWS V14.01,2013-09-12 16:49:00,
2013-09-12 11:54:00,79.2,54.1,30.04,WNW,293,1.8,10.8,42,0.00,,---,0.00,VWS V14.01,2013-09-12 16:54:00,
2013-09-12 11:59:00,79.4,53.6,30.04,WNW,288,3.6,9.0,41,0.00,,---,0.00,VWS V14.01,2013-09-12 16:59:00,
2013-09-12 12:04:00,79.3,53.5,30.04,WNW,300,1.8,14.4,41,0.00,,---,0.00,VWS V14.01,2013-09-12 17:04:00,
2013-09-12 12:09:00,80.3,53.2,30.04,NW,319,5.4,9.0,39,0.00,,---,0.00,VWS V14.01,2013-09-12 17:09:00,
2013-09-12 12:14:00,80.2,52.4,30.04,ESE,121,3.6,10.8,38,0.00,,---,0.00,VWS V14.01,2013-09-12 17:14:00,
2013-09-12 12:19:00,80.6,52.8,30.03,West,276,1.8,9.0,38,0.00,,---,0.00,VWS V14.01,2013-09-12 17:19:00,
2013-09-12 12:24:00,80.7,51.5,30.04,NW,307,7.2,9.0,36,0.00,,---,0.00,VWS V14.01,2013-09-12 17:24:00,
2013-09-12 12:29:00,80.4,50.5,30.04,NW,314,5.4,10.8,35,0.00,,---,0.00,VWS V14.01,2013-09-12 17:29:00,
2013-09-12 12:34:00,80.5,52.0,30.04,ENE,60,3.6,9.0,37,0.00,,---,0.00,VWS V14.01,2013-09-12 17:34:00,
2013-09-12 12:39:00,80.5,50.6,30.04,NW,310,10.8,16.2,35,0.00,,---,0.00,VWS V14.01,2013-09-12 17:39:00,
2013-09-12 12:44:00,80.4,49.1,30.04,WSW,252,1.8,12.6,33,0.00,,---,0.00,VWS V14.01,2013-09-12 17:44:00,
2013-09-12 12:49:00,81.1,50.4,30.04,South,177,3.6,7.2,34,0.00,,---,0.00,VWS V14.01,2013-09-12 17:49:00,
2013-09-12 12:54:00,81.1,51.2,30.04,ENE,71,5.4,9.0,35,0.00,,---,0.00,VWS V14.01,2013-09-12 17:54:00,
2013-09-12 12:59:00,81.1,49.7,30.04,WNW,297,3.6,18.0,33,0.00,,---,0.00,VWS V14.01,2013-09-12 17:59:00,
2013-09-12 13:04:00,80.7,50.1,30.03,WNW,283,5.4,12.6,34,0.00,,---,0.00,VWS V14.01,2013-09-12 18:04:00,
2013-09-12 13:09:00,80.9,51.0,30.03,North,356,5.4,14.4,35,0.00,,---,0.00,VWS V14.01,2013-09-12 18:09:00,
2013-09-12 13:14:00,80.7,50.8,30.03,NNE,28,5.4,9.0,35,0.00,,---,0.00,VWS V14.01,2013-09-12 18:14:00,
2013-09-12 13:19:00,80.8,50.9,30.04,NE,44,1.8,7.2,35,0.00,,---,0.00,VWS V14.01,2013-09-12 18:19:00,
2013-09-12 13:24:00,81.1,50.4,30.04,WSW,256,3.6,10.8,34,0.00,,---,0.00,VWS V14.01,2013-09-12 18:24:00,
2013-09-12 13:29:00,80.8,48.7,30.03,NNE,28,14.4,19.8,33,0.00,,---,0.00,VWS V14.01,2013-09-12 18:29:00,
2013-09-12 13:34:00,80.2,49.6,30.03,WSW,240,1.8,14.4,34,0.00,,---,0.00,VWS V14.01,2013-09-12 18:34:00,
2013-09-12 13:39:00,80.5,49.9,30.03,NW,307,1.8,10.8,34,0.00,,---,0.00,VWS V14.01,2013-09-12 18:39:00,
2013-09-12 13:44:00,80.2,48.2,30.03,WNW,290,3.6,12.6,33,0.00,,---,0.00,VWS V14.01,2013-09-12 18:44:00,
2013-09-12 13:49:00,80.2,48.9,30.03,WNW,292,1.8,12.6,33,0.00,,---,0.00,VWS V14.01,2013-09-12 18:49:00,
2013-09-12 13:54:00,80.9,49.5,30.03,WSW,253,3.6,16.2,33,0.00,,---,0.00,VWS V14.01,2013-09-12 18:54:00,
2013-09-12 13:59:00,80.9,49.5,30.03,West,265,5.4,19.8,33,0.00,,---,0.00,VWS V14.01,2013-09-12 18:59:00,
2013-09-12 14:04:00,81.1,50.4,30.03,SE,146,3.6,7.2,34,0.00,,---,0.00,VWS V14.01,2013-09-12 19:04:00,
2013-09-12 14:09:00,81.1,50.4,30.03,NW,318,12.6,12.6,34,0.00,,---,0.00,VWS V14.01,2013-09-12 19:09:00,
2013-09-12 14:14:00,80.5,50.6,30.02,West,281,3.6,9.0,35,0.00,,---,0.00,VWS V14.01,2013-09-12 19:14:00,
2013-09-12 14:19:00,80.6,50.7,30.02,NW,304,1.8,10.8,35,0.00,,---,0.00,VWS V14.01,2013-09-12 19:19:00,
2013-09-12 14:24:00,80.6,51.4,30.02,NE,52,3.6,5.4,36,0.00,,---,0.00,VWS V14.01,2013-09-12 19:24:00,
2013-09-12 14:29:00,81.1,50.4,30.02,NNW,337,5.4,10.8,34,0.00,,---,0.00,VWS V14.01,2013-09-12 19:29:00,
2013-09-12 14:34:00,80.6,49.2,30.02,WNW,301,7.2,12.6,33,0.00,,---,0.00,VWS V14.01,2013-09-12 19:34:00,
2013-09-12 14:39:00,80.1,48.8,30.02,NE,39,5.4,12.6,33,0.00,,---,0.00,VWS V14.01,2013-09-12 19:39:00,
2013-09-12 14:44:00,80.0,48.7,30.02,North,9,3.6,12.6,33,0.00,,---,0.00,VWS V14.01,2013-09-12 19:44:00,
2013-09-12 14:49:00,80.0,48.7,30.02,NW,319,7.2,10.8,33,0.00,,---,0.00,VWS V14.01,2013-09-12 19:49:00,
2013-09-12 14:54:00,79.9,49.4,30.02,WNW,290,3.6,9.0,34,0.00,,---,0.00,VWS V14.01,2013-09-12 19:54:00,
2013-09-12 14:59:00,79.5,49.0,30.03,WSW,246,1.8,10.8,34,0.00,,---,0.00,VWS V14.01,2013-09-12 19:59:00,
2013-09-12 15:04:00,79.1,49.4,30.02,NW,319,1.8,16.2,35,0.00,,---,0.00,VWS V14.01,2013-09-12 20:04:00,
2013-09-12 15:09:00,78.8,47.7,30.03,NNW,345,1.8,14.4,33,0.00,,---,0.00,VWS V14.01,2013-09-12 20:09:00,
2013-09-12 15:14:00,78.8,48.4,30.02,NNW,330,7.2,12.6,34,0.00,,---,0.00,VWS V14.01,2013-09-12 20:14:00,
2013-09-12 15:19:00,78.7,48.3,30.02,NW,313,3.6,9.0,34,0.00,,---,0.00,VWS V14.01,2013-09-12 20:19:00,
2013-09-12 15:24:00,78.5,48.2,30.02,North,9,3.6,10.8,34,0.00,,---,0.00,VWS V14.01,2013-09-12 20:24:00,
2013-09-12 15:29:00,78.3,49.4,30.02,West,281,1.8,12.6,36,0.00,,---,0.00,VWS V14.01,2013-09-12 20:29:00,
2013-09-12 15:34:00,78.3,49.4,30.02,NW,307,0.0,5.4,36,0.00,,---,0.00,VWS V14.01,2013-09-12 20:34:00,
2013-09-12 15:39:00,78.5,48.2,30.02,WNW,302,7.2,7.2,34,0.00,,---,0.00,VWS V14.01,2013-09-12 20:39:00,
2013-09-12 15:44:00,78.6,47.5,30.02,SE,134,1.8,7.2,33,0.00,,---,0.00,VWS V14.01,2013-09-12 20:44:00,
2013-09-12 15:49:00,78.4,47.3,30.02,NNE,28,5.4,7.2,33,0.00,,---,0.00,VWS V14.01,2013-09-12 20:49:00,
2013-09-12 15:54:00,78.1,47.8,30.02,NW,319,3.6,14.4,34,0.00,,---,0.00,VWS V14.01,2013-09-12 20:54:00,
2013-09-12 15:59:00,78.1,48.5,30.03,SE,131,3.6,9.0,35,0.00,,---,0.00,VWS V14.01,2013-09-12 20:59:00,
2013-09-12 16:04:00,77.9,48.3,30.02,WNW,288,1.8,9.0,35,0.00,,---,0.00,VWS V14.01,2013-09-12 21:04:00,
2013-09-12 16:09:00,77.9,48.3,30.02,SSE,168,1.8,10.8,35,0.00,,---,0.00,VWS V14.01,2013-09-12 21:09:00,
2013-09-12 16:14:00,77.7,48.2,30.02,NE,39,0.0,10.8,35,0.00,,---,0.00,VWS V14.01,2013-09-12 21:14:00,
2013-09-12 16:19:00,77.7,48.8,30.03,WNW,298,1.8,7.2,36,0.00,,---,0.00,VWS V14.01,2013-09-12 21:19:00,
2013-09-12 16:24:00,77.6,46.6,30.02,East,83,7.2,7.2,33,0.00,,---,0.00,VWS V14.01,2013-09-12 21:24:00,
2013-09-12 16:29:00,77.4,47.2,30.02,NE,54,1.8,10.8,34,0.00,,---,0.00,VWS V14.01,2013-09-12 21:29:00,
2013-09-12 16:34:00,77.3,47.8,30.02,North,359,5.4,10.8,35,0.00,,---,0.00,VWS V14.01,2013-09-12 21:34:00,
2013-09-12 16:39:00,77.2,47.0,30.02,WSW,253,1.8,12.6,34,0.00,,---,0.00,VWS V14.01,2013-09-12 21:39:00,
2013-09-12 16:44:00,76.9,47.5,30.02,North,351,1.8,9.0,35,0.00,,---,0.00,VWS V14.01,2013-09-12 21:44:00,
2013-09-12 16:49:00,76.6,47.9,30.02,NW,316,5.4,10.8,36,0.00,,---,0.00,VWS V14.01,2013-09-12 21:49:00,
2013-09-12 16:54:00,76.3,47.6,30.02,NNE,22,3.6,10.8,36,0.00,,---,0.00,VWS V14.01,2013-09-12 21:54:00,
2013-09-12 16:59:00,76.3,47.6,30.02,ENE,77,3.6,10.8,36,0.00,,---,0.00,VWS V14.01,2013-09-12 21:59:00,
2013-09-12 17:04:00,76.1,48.8,30.02,WNW,294,0.0,5.4,38,0.00,,---,0.00,VWS V14.01,2013-09-12 22:04:00,
2013-09-12 17:09:00,76.5,48.5,30.02,NE,49,3.6,9.0,37,0.00,,---,0.00,VWS V14.01,2013-09-12 22:09:00,
2013-09-12 17:14:00,76.4,48.4,30.02,NNW,342,5.4,12.6,37,0.00,,---,0.00,VWS V14.01,2013-09-12 22:14:00,
2013-09-12 17:19:00,76.0,48.0,30.02,SE,136,9.0,10.8,37,0.00,,---,0.00,VWS V14.01,2013-09-12 22:19:00,
2013-09-12 17:24:00,75.7,48.4,30.02,East,99,1.8,9.0,38,0.00,,---,0.00,VWS V14.01,2013-09-12 22:24:00,
2013-09-12 17:29:00,75.7,47.8,30.03,North,11,0.0,7.2,37,0.00,,---,0.00,VWS V14.01,2013-09-12 22:29:00,
2013-09-12 17:34:00,75.4,47.5,30.03,NW,317,7.2,9.0,37,0.00,,---,0.00,VWS V14.01,2013-09-12 22:34:00,
2013-09-12 17:39:00,75.2,48.0,30.03,WNW,300,5.4,10.8,38,0.00,,---,0.00,VWS V14.01,2013-09-12 22:39:00,
2013-09-12 17:44:00,75.0,48.4,30.03,NNW,342,3.6,12.6,39,0.00,,---,0.00,VWS V14.01,2013-09-12 22:44:00,
2013-09-12 17:49:00,74.8,48.2,30.03,SE,134,0.0,3.6,39,0.00,,---,0.00,VWS V14.01,2013-09-12 22:49:00,
2013-09-12 17:54:00,74.6,48.1,30.03,East,99,5.4,9.0,39,0.00,,---,0.00,VWS V14.01,2013-09-12 22:54:00,
2013-09-12 17:59:00,74.4,47.9,30.03,NNE,29,1.8,10.8,39,0.00,,---,0.00,VWS V14.01,2013-09-12 22:59:00,
2013-09-12 18:04:00,74.2,48.3,30.03,SSE,147,0.0,3.6,40,0.00,,---,0.00,VWS V14.01,2013-09-12 23:04:00,
2013-09-12 18:09:00,73.9,48.1,30.03,WSW,246,3.6,7.2,40,0.00,,---,0.00,VWS V14.01,2013-09-12 23:09:00,
2013-09-12 18:14:00,73.7,48.5,30.03,West,281,0.0,7.2,41,0.00,,---,0.00,VWS V14.01,2013-09-12 23:14:00,
2013-09-12 18:19:00,73.5,48.3,30.03,NW,305,5.4,10.8,41,0.00,,---,0.00,VWS V14.01,2013-09-12 23:19:00,
2013-09-12 18:24:00,73.3,48.8,30.04,NW,308,0.0,5.4,42,0.00,,---,0.00,VWS V14.01,2013-09-12 23:24:00,
2013-09-12 18:29:00,73.0,48.5,30.04,NW,316,1.8,7.2,42,0.00,,---,0.00,VWS V14.01,2013-09-12 23:29:00,
2013-09-12 18:34:00,72.7,48.2,30.04,NNE,13,1.8,14.4,42,0.00,,---,0.00,VWS V14.01,2013-09-12 23:34:00,
2013-09-12 18:39:00,72.4,48.5,30.04,ENE,60,0.0,7.2,43,0.00,,---,0.00,VWS V14.01,2013-09-12 23:39:00,
2013-09-12 18:44:00,72.1,48.3,30.04,NW,322,3.6,7.2,43,0.00,,---,0.00,VWS V14.01,2013-09-12 23:44:00,
2013-09-12 18:49:00,71.7,47.9,30.05,ENE,68,0.0,5.4,43,0.00,,---,0.00,VWS V14.01,2013-09-12 23:49:00,
2013-09-12 18:54:00,71.4,48.2,30.04,ENE,77,5.4,5.4,44,0.00,,---,0.00,VWS V14.01,2013-09-12 23:54:00,
2013-09-12 18:59:00,71.2,48.0,30.05,NNW,332,0.0,3.6,44,0.00,,---,0.00,VWS V14.01,2013-09-12 23:59:00,
2013-09-12 19:04:00,70.9,48.3,30.05,ESE,108,0.0,3.6,45,0.00,,---,0.00,VWS V14.01,2013-09-13 00:04:00,
2013-09-12 19:09:00,70.5,48.0,30.05,NNW,337,0.0,0.0,45,0.00,,---,0.00,VWS V14.01,2013-09-13 00:09:00,
2013-09-12 19:14:00,70.1,47.6,30.05,ENE,72,1.8,3.6,45,0.00,,---,0.00,VWS V14.01,2013-09-13 00:14:00,
2013-09-12 19:19:00,69.8,47.9,30.05,NNW,345,0.0,3.6,46,0.00,,---,0.00,VWS V14.01,2013-09-13 00:19:00,
2013-09-12 19:24:00,69.4,47.5,30.06,North,1,0.0,5.4,46,0.00,,---,0.00,VWS V14.01,2013-09-13 00:24:00,
2013-09-12 19:29:00,69.1,47.8,30.06,SSW,211,0.0,3.6,46,0.00,,---,0.00,VWS V14.01,2013-09-13 00:29:00,
2013-09-12 19:34:00,68.7,47.9,30.06,North,1,0.0,3.6,47,0.00,,---,0.00,VWS V14.01,2013-09-13 00:34:00,
2013-09-12 19:39:00,68.4,48.2,30.06,NE,52,0.0,0.0,48,0.00,,---,0.00,VWS V14.01,2013-09-13 00:39:00,
2013-09-12 19:44:00,68.1,47.9,30.06,East,83,0.0,0.0,48,0.00,,---,0.00,VWS V14.01,2013-09-13 00:44:00,
2013-09-12 19:49:00,67.8,48.1,30.07,NNE,16,0.0,0.0,49,0.00,,---,0.00,VWS V14.01,2013-09-13 00:49:00,
2013-09-12 19:54:00,67.6,47.9,30.07,East,79,0.0,7.2,49,0.00,,---,0.00,VWS V14.01,2013-09-13 00:54:00,
2013-09-12 19:59:00,67.5,47.8,30.07,North,359,1.8,3.6,49,0.00,,---,0.00,VWS V14.01,2013-09-13 00:59:00,
2013-09-12 20:04:00,67.4,48.2,30.07,NNE,22,3.6,5.4,50,0.00,,---,0.00,VWS V14.01,2013-09-13 01:04:00,
2013-09-12 20:09:00,67.1,48.0,30.07,NE,40,1.8,5.4,50,0.00,,---,0.00,VWS V14.01,2013-09-13 01:09:00,
2013-09-12 20:14:00,66.8,48.2,30.07,North,360,3.6,5.4,51,0.00,,---,0.00,VWS V14.01,2013-09-13 01:14:00,
2013-09-12 20:19:00,66.7,48.1,30.07,NNE,20,0.0,1.8,51,0.00,,---,0.00,VWS V14.01,2013-09-13 01:19:00,
2013-09-12 20:24:00,66.5,48.4,30.07,SW,222,0.0,1.8,52,0.00,,---,0.00,VWS V14.01,2013-09-13 01:24:00,
2013-09-12 20:29:00,66.2,48.6,30.08,SW,223,0.0,0.0,53,0.00,,---,0.00,VWS V14.01,2013-09-13 01:29:00,
2013-09-12 20:33:00,65.9,48.3,30.08,NE,36,0.0,5.4,53,0.00,,---,0.00,VWS V14.01,2013-09-13 01:33:00,
2013-09-12 20:38:00,65.7,48.1,30.08,NW,313,0.0,0.0,53,0.00,,---,0.00,VWS V14.01,2013-09-13 01:38:00,
2013-09-12 20:43:00,65.5,48.4,30.08,North,10,1.8,5.4,54,0.00,,---,0.00,VWS V14.01,2013-09-13 01:43:00,
2013-09-12 20:48:00,65.3,48.2,30.08,NE,46,1.8,1.8,54,0.00,,---,0.00,VWS V14.01,2013-09-13 01:48:00,
2013-09-12 20:53:00,65.0,48.4,30.08,SSW,208,0.0,1.8,55,0.00,,---,0.00,VWS V14.01,2013-09-13 01:53:00,
2013-09-12 20:58:00,64.8,48.2,30.08,NNW,345,0.0,7.2,55,0.00,,---,0.00,VWS V14.01,2013-09-13 01:58:00,
2013-09-12 21:03:00,64.6,48.0,30.08,NNW,334,0.0,3.6,55,0.00,,---,0.00,VWS V14.01,2013-09-13 02:03:00,
2013-09-12 21:08:00,64.4,47.8,30.08,NNW,335,0.0,0.0,55,0.00,,---,0.00,VWS V14.01,2013-09-13 02:08:00,
2013-09-12 21:13:00,64.2,48.1,30.08,NNE,22,0.0,9.0,56,0.00,,---,0.00,VWS V14.01,2013-09-13 02:13:00,
2013-09-12 21:18:00,64.2,48.1,30.08,North,354,0.0,5.4,56,0.00,,---,0.00,VWS V14.01,2013-09-13 02:18:00,
2013-09-12 21:23:00,64.1,48.0,30.08,NE,39,0.0,5.4,56,0.00,,---,0.00,VWS V14.01,2013-09-13 02:23:00,
2013-09-12 21:28:00,63.9,47.8,30.08,NE,46,0.0,5.4,56,0.00,,---,0.00,VWS V14.01,2013-09-13 02:28:00,
2013-09-12 21:33:00,63.7,48.1,30.08,North,6,0.0,0.0,57,0.00,,---,0.00,VWS V14.01,2013-09-13 02:33:00,
2013-09-12 21:38:00,63.3,47.7,30.09,North,6,0.0,0.0,57,0.00,,---,0.00,VWS V14.01,2013-09-13 02:38:00,
2013-09-12 21:43:00,63.1,47.9,30.09,North,6,0.0,0.0,58,0.00,,---,0.00,VWS V14.01,2013-09-13 02:43:00,
2013-09-12 21:48:00,62.8,47.7,30.09,North,6,0.0,0.0,58,0.00,,---,0.00,VWS V14.01,2013-09-13 02:48:00,
2013-09-12 21:53:00,62.5,47.8,30.09,North,6,0.0,0.0,59,0.00,,---,0.00,VWS V14.01,2013-09-13 02:53:00,
2013-09-12 21:58:00,62.1,47.8,30.09,North,6,0.0,0.0,60,0.00,,---,0.00,VWS V14.01,2013-09-13 02:58:00,
2013-09-12 22:03:00,61.7,47.9,30.09,North,6,0.0,0.0,60,0.00,,---,0.00,VWS V14.01,2013-09-13 03:03:00,
2013-09-12 22:08:00,61.4,48.0,30.09,North,6,0.0,0.0,61,0.00,,---,0.00,VWS V14.01,2013-09-13 03:08:00,
2013-09-12 22:13:00,61.0,48.0,30.09,North,6,0.0,0.0,62,0.00,,---,0.00,VWS V14.01,2013-09-13 03:13:00,
2013-09-12 22:18:00,60.5,48.0,30.09,North,6,0.0,0.0,63,0.00,,---,0.00,VWS V14.01,2013-09-13 03:18:00,
2013-09-12 22:23:00,59.9,47.8,30.10,North,6,0.0,0.0,64,0.00,,---,0.00,VWS V14.01,2013-09-13 03:23:00,
2013-09-12 22:28:00,59.3,48.0,30.10,North,6,0.0,0.0,66,0.00,,---,0.00,VWS V14.01,2013-09-13 03:28:00,
2013-09-12 22:33:00,58.8,47.9,30.10,North,6,0.0,0.0,67,0.00,,---,0.00,VWS V14.01,2013-09-13 03:33:00,
2013-09-12 22:38:00,58.3,47.8,30.10,North,6,0.0,0.0,68,0.00,,---,0.00,VWS V14.01,2013-09-13 03:38:00,
2013-09-12 22:43:00,58.0,47.8,30.10,North,6,0.0,0.0,69,0.00,,---,0.00,VWS V14.01,2013-09-13 03:43:00,
2013-09-12 22:48:00,57.7,47.9,30.10,North,6,0.0,0.0,70,0.00,,---,0.00,VWS V14.01,2013-09-13 03:48:00,
2013-09-12 22:53:00,57.4,47.6,30.10,North,6,0.0,0.0,70,0.00,,---,0.00,VWS V14.01,2013-09-13 03:53:00,
2013-09-12 22:58:00,57.2,47.4,30.10,North,6,0.0,0.0,70,0.00,,---,0.00,VWS V14.01,2013-09-13 03:58:00,
2013-09-12 23:01:00,57.1,47.7,30.10,North,6,0.0,0.0,71,0.00,,---,0.00,VWS V14.01,2013-09-13 04:01:00,
2013-09-12 23:06:00,57.4,48.0,30.10,North,6,0.0,0.0,71,0.00,,---,0.00,VWS V14.01,2013-09-13 04:06:00,
2013-09-12 23:11:00,57.4,47.6,30.10,North,6,0.0,0.0,70,0.00,,---,0.00,VWS V14.01,2013-09-13 04:11:00,
2013-09-12 23:16:00,57.2,47.8,30.11,North,6,0.0,0.0,71,0.00,,---,0.00,VWS V14.01,2013-09-13 04:16:00,
2013-09-12 23:21:00,56.8,47.4,30.11,North,6,0.0,0.0,71,0.00,,---,0.00,VWS V14.01,2013-09-13 04:21:00,
2013-09-12 23:26:00,56.5,47.5,30.11,North,6,0.0,0.0,72,0.00,,---,0.00,VWS V14.01,2013-09-13 04:26:00,
2013-09-12 23:31:00,56.3,47.6,30.11,North,6,0.0,0.0,73,0.00,,---,0.00,VWS V14.01,2013-09-13 04:31:00,
2013-09-12 23:36:00,56.3,47.6,30.11,North,6,0.0,0.0,73,0.00,,---,0.00,VWS V14.01,2013-09-13 04:36:00,
2013-09-12 23:41:00,56.1,47.4,30.11,North,6,0.0,0.0,73,0.00,,---,0.00,VWS V14.01,2013-09-13 04:41:00,
2013-09-12 23:46:00,55.9,47.5,30.11,North,6,0.0,0.0,73,0.00,,---,0.00,VWS V14.01,2013-09-13 04:46:00,
2013-09-12 23:51:00,55.7,47.7,30.11,North,6,0.0,0.0,74,0.00,,---,0.00,VWS V14.01,2013-09-13 04:51:00,
2013-09-12 23:56:00,55.5,47.5,30.11,North,6,0.0,0.0,74,0.00,,---,0.00,VWS V14.01,2013-09-13 04:56:00,